STARLINK-11440 [DTC] (62513 NORAD) Tracking and Keplerian Element Data

This shows tracking and keplerian element data for the satellite.

Feedback or suggestion? Click here.




ElementValue
Catalog62513
NameSTARLINK-11440 [DTC]
Epoch Orbit5465
Epoch Day353.87576676
Epoch Year2025
RAAN192.022
Inclination43.0004
Eccentricity0.0002965
Argument of Perigee268.7441
Mean Anonmoly91.3087
Mean Motion15.70896812
Decay Rate0.00201731
L11 62513U 25004C 25353.87576676 .00201731 00000+0 15340-2 0 9996
L22 62513 43.0004 192.0220 0002965 268.7441 91.3087 15.70896812 54655



Live tracking and technical data element details for STARLINK-11440 [DTC] (NORAD 62513). STARLINK-11440 [DTC] can be tracked NOW for your location showing map with azimuth and elevation plus other details from your city location.







IsCatalogInMostPopularTable: catalog: 62513, numindb: 75
Update: records affected: 1



GetName: 62513 STARLINK-11440 [DTC]

Hit Count: updated at: Sun, 08 Feb 2026 09:11:57 GMT